This demonstration page uses our WeatherBlox Daily Observations layout. Learn more.

Left ArrowRight Arrow

34.02893, -84.19858

Hourly Observations for February 15, 2021

Temp ( °F °C ) Dew Point ( °F °C ) Humidity (%) Winds ( mph kmh ) Pressure ( in mb ) Visibility ( mi km ) Precip ( " mm )
12:16 am 00:16 Cloudy with Light Rain 43 6.1 42 5.6 97 97 VRB 3 6 30.07 1018 2 3 0.00 0.00
12:53 am 00:53 Cloudy with Mist and Fog 43 6.1 43 6.1 100 100 Calm 30.06 1018 3 4 0.02 0.51
1:08 am 01:08 Cloudy with Mist and Fog 43 6.1 42 5.6 97 97 Calm 30.07 1018 4 6 0.00 0.00
1:53 am 01:53 Cloudy with Mist and Fog 43 6.1 42 5.6 97 97 ENE 3 6 30.05 1018 4 6 0.00 0.00
2:22 am 02:22 Cloudy with Mist and Fog 43 6.1 42 5.6 97 97 Calm 30.05 1017 3 4 0.00 0.00
2:30 am 02:30 Cloudy with Mist and Fog 42 5.6 42 5.6 100 100 VRB 5 7 30.05 1018 3 5 0.00 0.00
2:45 am 02:45 Cloudy with Mist and Fog 42 5.6 42 5.6 100 100 Calm 30.05 1018 3 4 0.00 0.00
2:53 am 02:53 Cloudy with Mist and Fog 42 5.6 42 5.6 100 100 VRB 3 6 30.04 1017 3 4 0.00 0.00
3:03 am 03:03 Cloudy with Mist and Fog 42 5.6 42 5.6 100 100 VRB 5 7 30.05 1018 4 6 0.00 0.00
3:46 am 03:46 Cloudy with Mist and Fog 42 5.6 42 5.6 100 100 Calm 30.04 1017 3 4 0.00 0.00
3:53 am 03:53 Cloudy with Mist and Fog 42 5.6 42 5.6 100 100 VRB 3 6 30.03 1017 3 4 0.00 0.00
4:07 am 04:07 Cloudy with Mist and Fog 42 5.6 42 5.6 100 100 E 6 9 30.03 1017 3 5 0.00 0.00
4:32 am 04:32 Cloudy with Mist and Fog 42 5.6 42 5.6 100 100 VRB 5 7 30.03 1017 3 5 0.00 0.00
4:53 am 04:53 Cloudy with Mist and Fog 42 5.6 42 5.6 100 100 Calm 30.03 1017 3 5 0.00 0.00
5:53 am 05:53 Cloudy with Mist and Fog 42 5.6 42 5.6 100 100 VRB 3 6 30.03 1017 4 6 0.00 0.00
6:53 am 06:53 Cloudy with Mist and Fog 42 5.6 41 5 96 96 VRB 3 6 30.01 1016 3 5 0.00 0.00
7:12 am 07:12 Cloudy with Mist and Fog 42 5.6 41 5 96 96 VRB 3 6 30.02 1017 4 6 0.00 0.00
7:53 am 07:53 Cloudy with Mist and Fog 42 5.6 41 5 96 96 E 5 7 30.03 1017 2 3 0.00 0.00
8:07 am 08:07 Cloudy with Mist and Fog 42 5.6 41 5 96 96 VRB 3 6 30.03 1017 2 2 0.00 0.00
8:53 am 08:53 Cloudy with Mist and Fog 42 5.6 41 5 96 96 E 6 9 30.04 1017 1 2 0.00 0.00
9:22 am 09:22 Cloudy with Mist and Fog 42 5.6 41 5 96 96 VRB 6 9 30.03 1017 2 3 0.00 0.00
9:30 am 09:30 Cloudy with Mist and Fog 42 5.6 41 5 96 96 VRB 6 9 30.03 1017 3 4 0.00 0.00
9:51 am 09:51 Cloudy with Mist and Fog 43 6 41 5 93 93 E 8 13 30.01 1016 5 8 0.00 0.00
9:53 am 09:53 Cloudy with Mist and Fog 42 5.6 41 5 96 96 VRB 6 9 30.01 1016 6 10 0.00 0.00
10:25 am 10:25 Cloudy with Mist and Fog 42 5.6 41 5 96 96 E 10 17 30.01 1016 4 6 0.00 0.00
10:53 am 10:53 Cloudy with Mist and Fog 42 5.6 41 5 96 96 VRB 6 9 30.01 1016 1 2 0.00 0.00
11:53 am 11:53 Cloudy with Mist and Fog 42 5.6 42 5.6 100 100 VRB 6 9 29.99 1016 1 2 0.00 0.00
12:53 pm 12:53 Cloudy with Mist and Fog 42 5.6 42 5.6 100 100 E 9 15 29.93 1013 2 3 0.00 0.00
12:57 pm 12:57 Cloudy with Mist and Fog 42 5.6 42 5.6 100 100 VRB 7 11 29.93 1013 2 3 0.00 0.00
1:53 pm 13:53 Cloudy with Mist and Fog 43 6.1 42 5.6 97 97 VRB 7 11 29.86 1011 2 3 0.00 0.00
1:55 pm 13:55 Cloudy with Mist and Fog 43 6.1 42 5.6 97 97 E 9 15 29.87 1011 4 6 0.00 0.00
2:00 pm 14:00 Cloudy with Mist and Fog 43 6.1 42 5.6 97 97 VRB 7 11 29.86 1011 2 3 0.00 0.00
2:53 pm 14:53 Cloudy with Mist and Fog 43 6.1 43 6.1 100 100 VRB 6 9 29.82 1010 2 3 0.00 0.00
3:05 pm 15:05 Cloudy with Mist and Fog 43 6.1 43 6.1 100 100 VRB 7 11 29.82 1010 2 3 0.00 0.00
3:53 pm 15:53 Cloudy with Light Rain 43 6.1 43 6.1 100 100 E 8 13 29.80 1009 3 4 0.05 1.27
4:04 pm 16:04 Cloudy with Nearby Thunderstorms 43 6.1 43 6.1 100 100 ENE 8 13 29.79 1009 3 4 0.03 0.76
4:10 pm 16:10 Cloudy with Nearby Thunderstorms 43 6.1 43 6.1 100 100 VRB 5 7 29.80 1009 2 3 0.07 1.78
4:15 pm 16:15 Cloudy with Rain 43 6.1 43 6.1 100 100 E 5 7 29.79 1009 2 3 0.09 2.29
4:26 pm 16:26 Cloudy with Rain 43 6.1 43 6.1 100 100 undefined N/A 29.78 1008 3 5 0.12 3.05
4:32 pm 16:32 Cloudy with Strong Thunderstorms 43 6.1 43 6.1 100 100 VRB 5 7 29.80 1009 2 3 0.18 4.57
4:45 pm 16:45 Cloudy with Strong Thunderstorms 43 6.1 43 6.1 100 100 VRB 6 9 29.80 1009 1 1 0.42 10.67
4:47 pm 16:47 Cloudy with Nearby Thunderstorms 43 6 43 6 100 100 E 9 15 29.80 1009 1 2 0.43 10.92
4:53 pm 16:53 Cloudy with Nearby Thunderstorms 43 6.1 42 5.6 97 97 VRB 5 7 29.79 1009 2 2 0.46 11.68
4:56 pm 16:56 Cloudy with Nearby Thunderstorms 43 6.1 43 6.1 100 100 VRB 6 9 29.81 1009 3 4 0.00 0.00
4:59 pm 16:59 Cloudy with Light Rain 43 6.1 43 6.1 100 100 VRB 5 7 29.80 1009 4 6 0.00 0.00
5:26 pm 17:26 Cloudy with Nearby Thunderstorms 43 6.1 43 6.1 100 100 VRB 6 9 29.81 1009 3 4 0.07 1.78
5:53 pm 17:53 Cloudy with Nearby Thunderstorms 43 6.1 42 5.6 97 97 VRB 7 11 29.78 1008 3 5 0.16 4.06
5:57 pm 17:57 Cloudy with Rain 43 6.1 42 5.6 97 97 E 8 13 29.76 1008 3 4 0.01 0.25
6:04 pm 18:04 Cloudy with Light Rain 43 6.1 42 5.6 97 97 E 10 17 29.75 1007 3 5 0.02 0.51
6:13 pm 18:13 Cloudy 43 6.1 43 6.1 100 100 E 10 17 29.73 1007 10 16 0.02 0.51
6:23 pm 18:23 Cloudy with Light Rain 43 6.1 43 6.1 100 100 VRB 6 9 29.73 1007 10 16 0.02 0.51
6:44 pm 18:44 Cloudy with Light Rain 43 6.1 43 6.1 100 100 E 9 15 29.73 1007 10 16 0.02 0.51
6:53 pm 18:53 Cloudy with Light Rain 43 6.1 43 6.1 100 100 undefined N/A 29.72 1006 10 16 0.02 0.51
7:50 pm 19:50 Cloudy with Light Rain 45 7 45 7 100 100 Calm 29.76 1008 3 4 0.03 0.76
7:53 pm 19:53 Cloudy with Light Rain 44 6.7 44 6.7 100 100 Calm 29.77 1008 3 4 0.03 0.76
8:16 pm 20:16 Cloudy with Light Rain 44 6.7 44 6.7 100 100 Calm 29.78 1009 2 3 0.02 0.51
8:26 pm 20:26 Cloudy with Light Rain 44 6.7 44 6.7 100 100 Calm 29.78 1009 2 3 0.03 0.76
8:40 pm 20:40 Cloudy with Light Rain 44 6.7 44 6.7 100 100 Calm 29.78 1009 2 3 0.04 1.02
8:44 pm 20:44 Cloudy with Light Rain 44 6.7 44 6.7 100 100 Calm 29.77 1008 3 5 0.04 1.02
8:51 pm 20:51 Cloudy with Mist and Fog 45 7 45 7 100 100 Calm 29.77 1008 3 5 0.04 1.02
8:53 pm 20:53 Cloudy with Mist and Fog 45 7.2 44 6.7 97 97 Calm 29.77 1008 3 4 0.04 1.02
9:05 pm 21:05 Cloudy with Mist and Fog 44 6.7 44 6.7 100 100 Calm 29.77 1008 3 5 0.00 0.00
9:53 pm 21:53 Cloudy with Mist and Fog 44 6.7 44 6.7 100 100 Calm 29.79 1009 5 8 0.00 0.00
10:15 pm 22:15 Cloudy with Mist and Fog 44 6.7 44 6.7 100 100 Calm 29.79 1009 2 3 0.00 0.00
10:31 pm 22:31 Cloudy with Mist and Fog 44 6.7 44 6.7 100 100 Calm 29.80 1009 4 6 0.00 0.00
10:53 pm 22:53 Cloudy with Light Rain 44 6.7 44 6.7 100 100 Calm 29.80 1009 4 6 0.01 0.25
11:17 pm 23:17 Cloudy 45 7.2 44 6.7 97 97 Calm 29.80 1009 8 13 0.00 0.00
11:32 pm 23:32 Cloudy 45 7.2 45 7.2 100 100 WSW 6 9 29.80 1009 9 14 0.00 0.00
11:40 pm 23:40 Cloudy 46 7.8 45 7.2 96 96 WSW 9 15 29.80 1009 10 16 0.00 0.00
11:50 pm 23:50 Cloudy 46 8 45 7 93 93 W 14 22 29.79 1009 10 16 0.00 0.00
11:53 pm 23:53 Cloudy 46 7.8 44 6.7 93 93 W 14 22 29.80 1009 10 16 0.00 0.00

Powered by AerisWeather